Location: Lake Almanor
(40.2485°N, 121.1442°W)
Time: 18:36:30
(UTC-08:00)

N. Korean satellite - Pass Details

Date: 27 January 2020
Orbit: 456 x 505 km, 97.2° (Epoch: 26 February)

Event Time Altitude Azimuth Distance (km) Brightness Sun altitude
Rises 06:18:03 0° 3° (N) 2,547 10.1 -11.7°
Reaches altitude 10° 06:20:10 10° 356° (N) 1,672 9.1 -11.3°
Maximum altitude 06:23:33 40° 286° (WNW) 736 7.0 -10.7°
Drops below altitude 10° 06:26:58 10° 216° (SW) 1,685 9.1 -10.0°
Sets 06:29:07 0° 209° (SSW) 2,569 10.1 -9.6°
